Regional Weather Roundup
Issued by NWS

Home | Current Version | Previous Version | Text Only | Print | Product List | Glossary On
Versions: 1 2 3 4 5 6 7 8 9 10 11 12 13 14 15 16 17 18 19 20 21 22 23 24 25 26 27 28 29 30 31 32 33 34 35 36 37 38 39 40 41 42 43 44 45 46 47 48 49 50
000
ASUS43 KLSX 280307
RWRMO

WEATHER SUMMARY FOR MISSOURI
NATIONAL WEATHER SERVICE SPRINGFIELD MO
1000 PM CDT WED AUG 27 2014

NOTE: "FAIR" INDICATES FEW OR NO CLOUDS BELOW 12,000 FEET WITH NO
       SIGNIFICANT WEATHER AND/OR OBSTRUCTIONS TO VISIBILITY.
       CURRENT SKY AND/OR WEATHER CONDITIONS ARE NOT AVAILABLE FOR
       CHILLICOTHE AND FARMINGTON.

MOZ001>031-035>038-043-044-053-054-280400-
...NORTHERN AND WESTERN MISSOURI...

CITY           SKY/WX    TMP DP  RH WIND       PRES   REMARKS
KANSAS CTY INT CLOUDY    79  72  79 E9        30.05S
KANSAS C DTWN  CLOUDY    81  73  76 E10       30.03S
LEE`S SUMMIT   MOCLDY    78  72  81 E5        30.06S
ST JOSEPH      CLOUDY    75  71  87 E7        30.06R
CHILLICOTHE      N/A     75  71  87 NE3       30.09R
KIRKSVILLE     MOCLDY    73  70  90 NE3       30.10R

$$
MOZ066>068-077>081-088>096-101>105-280400-
...SOUTHWEST MISSOURI...

CITY           SKY/WX    TMP DP  RH WIND       PRES   REMARKS
SPRINGFIELD    MOCLDY    80  67  64 E6        30.06R
JOPLIN         MOCLDY    79  68  69 E5        30.05R

$$
MOZ032>034-039>042-045>050-055>058-069>072-280400-
...CENTRAL MISSOURI...

CITY           SKY/WX    TMP DP  RH WIND       PRES   REMARKS
COLUMBIA       CLEAR     73  69  87 E5        30.06F
JEFFERSON CITY CLEAR     73  69  87 SE5       30.06R
ROLLA          PTCLDY    73  69  87 SE9       30.07R
SEDALIA        PTCLDY    77  72  84 SE5       30.06R
WHITEMAN AFB   PTCLDY    75  56  50 E3        30.05R
OSAGE BEACH    CLEAR     75  66  73 NE5       30.07R

$$
MOZ051-052-059>065-280400-
...EAST CENTRAL MISSOURI...

CITY           SKY/WX    TMP DP  RH WIND       PRES   REMARKS
ST LOUIS INTL  LGT RAIN  75  71  87 E9        30.08R
SPIRIT OF STL  CLOUDY    71  69  93 CALM      30.06R
ST CHARLES     CLOUDY    73  71  93 CALM      30.07R

$$
MOZ072>076-082>087-097>100-106>115-280400-
...SOUTH CENTRAL AND SOUTHEAST MISSOURI...

CITY           SKY/WX    TMP DP  RH WIND       PRES   REMARKS
CAPE GIRARDEAU MOCLDY    81  75  82 N7        30.06R
FARMINGTON     CLOUDY    72  70  94 E3        30.12R
POPLAR BLUFF   MOCLDY    78  72  81 CALM      30.03S
WEST PLAINS    PTCLDY    75  67  76 CALM      30.10R

$$



USA.gov is the U.S. government's official web portal to all federal, state and local government web resources and services.